Regional Weather Roundup
Issued by NWS Wilmington, NC

Home | Current Version | Previous Version | Text Only | Print | Product List | Glossary On
Versions: 1 2 3 4 5 6 7 8 9 10 11 12 13 14 15 16 17 18 19 20 21 22 23 24 25 26 27 28 29 30 31 32 33 34 35 36 37 38 39 40 41 42 43 44 45 46 47 48 49 50
000
ASUS42 KILM 021513
RWRILM
RWRILM
REGIONAL HOURLY WEATHER ROUNDUP
NATIONAL WEATHER SERVICE WILMINGTON NC
1100 AM EDT TUE JUN 02 2015

NOTE: "FAIR" INDICATES FEW OR NO CLOUDS BELOW 12,000 FEET WITH NO
SIGNIFICANT WEATHER AND/OR OBSTRUCTIONS TO VISIBILITY.

...............WFO WILMINGTON COUNTY WARNING AREA...............

......COASTAL NC AND SC COUNTIES......

CITY           SKY/WX    TMP DP  RH WIND       PRES   REMARKS
WILMINGTON     FAIR      82  67  60 CALM      30.03F
N MYRTLE BEACH CLOUDY    80  69  69 VRB6      30.03F
MYRTLE BEACH   TSTM      73  64  73 SW7       30.07R

......INLAND NC AND SC COUNTIES.......

CITY           SKY/WX    TMP DP  RH WIND       PRES   REMARKS
LUMBERTON      PTSUNNY   80  68  66 W5        30.04S
ELIZABETHTOWN  PTSUNNY   81  67  63 SW3       30.04S
WHITEVILLE     PTSUNNY   80  67  64 W3        30.03S
FLORENCE       PTSUNNY   76  69  79 S3        30.04S
DARLINGTON     CLOUDY    75  66  73 W5        30.05S

....................REST OF NORTH CAROLINA......................

.........EASTERN NC.........

CITY           SKY/WX    TMP DP  RH WIND       PRES   REMARKS
CAPE HATTERAS  PTSUNNY   80  69  69 SW8       30.05S
JACKSONVILLE   MOSUNNY   84  66  54 SW8       30.03S
MOREHEAD CITY  MOSUNNY   80  72  76 SW10      30.04S
KENANSVILLE    PTSUNNY   81  66  60 SW5       30.04S
NEW BERN       MOSUNNY   84  68  58 SW8       30.03F
ELIZABETH CITY PTSUNNY   81  70  69 S13       30.01F

.........CENTRAL NC.........

CITY           SKY/WX    TMP DP  RH WIND       PRES   REMARKS
RALEIGH DURHAM RAIN      70  68  93 SW5       30.06R FOG
ROCKY MOUNT    CLOUDY    79  68  69 W8        30.03R
ROANOKE RAPIDS NOT AVBL
FAYETTEVILLE   PTSUNNY   72  68  87 NW3       30.04F
HOFFMAN        PTSUNNY   76  67  74 W7        30.08F

.........WESTERN NC.........

CITY           SKY/WX    TMP DP  RH WIND       PRES   REMARKS
CHARLOTTE      CLOUDY    72  66  81 SE7       30.05F
GREENSBORO     CLOUDY    71  67  87 W8        30.06R
HICKORY        NOT AVBL
BOONE          NOT AVBL
ASHEVILLE      NOT AVBL

.....................REST OF SOUTH CAROLINA.....................

.........EASTERN SC.........

CITY           SKY/WX    TMP DP  RH WIND       PRES   REMARKS
CHARLESTON     PTSUNNY   82  67  60 S7        30.03S
BEAUFORT MCAS  MOSUNNY   83  67  58 SW5       30.03S
HILTON HEAD    MOSUNNY   82  70  65 SW6       30.04F

.........CENTRAL SC.........

CITY           SKY/WX    TMP DP  RH WIND       PRES   REMARKS
COLUMBIA       PTSUNNY   80  67  64 N3        30.02F
ORANGEBURG     PTSUNNY   78  67  68 CALM      30.03F
SUMTER SHAW    PTSUNNY   79  65  60 SW6       30.02S

.........WESTERN SC.........

CITY           SKY/WX    TMP DP  RH WIND       PRES   REMARKS
GREENVILLE     NOT AVBL
ROCK HILL      PTSUNNY   75  67  76 VRB6      30.05F
ANDERSON       PTSUNNY   74  66  76 SW3       30.04S
CLEMSON        NOT AVBL
GREENWOOD      PTSUNNY   75  67  76 S5        30.05F


...................COASTAL AND OFFSHORE REPORTS..................

................LOCAL PIERS AND NC RESERVE................


STATION/POSITION TIME  SKY/WX   TEMP    WIND        PRES    VSBY
                                AIR SEA DIR/SP/G
                 (UTC)          (F)     (DEG/KT/KT) (MB)    (MI)
JOHNY MRCER PIER 1400            77 79  180/  6/  6 1016.7R
NC RESRV MASNBRO NOT AVBL
OCEAN CREST PIER 1502            79 81  160/  8/  9 1016.5S
SPRINGMAID  PIER 1400            80 78  160/  5/  6 1017.1S


................COASTAL AND OFFSHORE BUOYS................


STATION/POSITION TIME  SKY/WX   TEMP    WIND        PRES    VSBY
                                AIR SEA DIR/SP/G
                 (UTC)          (F)     (DEG/KT/KT) (MB)    (MI)
DIMNDSHOAL 41025 1450            78 81  240/  6/  8 1017.6R
WVE H/P(F/S)=  3/ 9 WND WVE H/P(F/S)=  2/ 3 SWL H/P/D(F/S/D)=  2/ 90/ 9

CAPE LOOKOUT     1500            78     200/  9/ 11 1017.2R
ONSLOW BAY 41036 NOT AVBL
5 WRITEBCH 41038 1408            77 78  230/  6/  8 1017.3R
MASONBORO  41110 1419               78                N/A
WVE H/P(F/S)=  2/ 8 WND WVE H/P(F/S)=  2/ 8

WILM HARBR 41108 1411               79                N/A
WVE H/P(F/S)=  2/ 9 WND WVE H/P(F/S)=  2/ 9

27WRITEBCH 41037 1400               77  180/  6/  6   N/A
FRYING PAN 41013 1450            78 77  190/  4/  6 1018.0S
WVE H/P(F/S)=  3/ 9 WND WVE H/P(F/S)=  2/ 3 SWL H/P/D(F/S/D)=  3/130/ 9

SUNST NRSH 41024 1408            76     200/  6/  8 1017.2R
CAPRS NRSH 41029 1408            78     210/  8/ 10 1017.5R
EDISTO     41004 1450            75 80  170/ 14/ 16 1017.0S
WVE H/P(F/S)=  3/ 8 WND WVE H/P(F/S)=  2/ 3 SWL H/P/D(F/S/D)=  3/ 8



..........OFFSHORE BUOYS BEYOND 100 NM OFFSHORE...........
.....IN A TRIANGLE---HAT TO BERMUDA TO BAHAMAS TO HAT.....


STATION/POSITION TIME  SKY/WX   TEMP    WIND        PRES    VSBY
                                AIR SEA DIR/SP/G
                 (UTC)          (F)     (DEG/KT/KT) (MB)    (MI)
150E HAT   41001 NOT AVBL
W BERMUDA  41048 1450            74 76  120/  6/  8 1019.1S
WVE H/P(F/S)=  4/ 8 SWL H/P/D(F/S/D)=  3/100/ 8

ATLANTIC S 41049 1450            78 80   80/  4/  6 1019.6R
WVE H/P(F/S)=  4/ 6 SWL H/P/D(F/S/D)=  3/ 90/ 6

E BAHAMAS  41046 1450            81 83  120/  6/  8 1017.9R
WVE H/P(F/S)=  3/ 8 WND WVE H/P(F/S)=  2/ 4 SWL H/P/D(F/S/D)=  3/ 80/ 8

NE BAHAMAS 41047 1450            79 81  120/  4/  4 1017.7F
WVE H/P(F/S)=  3/ 8 SWL H/P/D(F/S/D)=  3/ 90/ 8

120E CANVRL41010 1420            79 80  140/  6/  8 1017.9R

END



USA.gov is the U.S. government's official web portal to all federal, state and local government web resources and services.